Weather History for Big Piney, WY

Change the Weather History Date:

Friday, April 12, 2013

  Actual Average Record
Temperature  
Mean Temperature 38 °F 36 °F  
Max Temperature 52 °F 51 °F 67 °F (1988)
Min Temperature 23 °F 21 °F 7 °F (1997)
Degree Days  
Heating Degree Days 27 29  
Month to date heating degree days 351 363  
Since 1 July heating degree days 8333 9058  
Cooling Degree Days 0 0  
Month to date cooling degree days 0 0  
Year to date cooling degree days 0 0  
Moisture  
Dew Point 18 °F    
Average Humidity 48    
Maximum Humidity 81    
Minimum Humidity 14    
Precipitation  
Precipitation 0.00 in 0.01 in 0.20 in (1983)
Month to date precipitation 0.14 0.19  
Year to date precipitation 0.33 1.29  
Sea Level Pressure  
Sea Level Pressure 29.86 in    
Wind  
Wind Speed 9 mph (NW)    
Max Wind Speed 18 mph    
Max Gust Speed 24 mph    
Visibility 10 miles    
Events      
T = Trace of Precipitation, MM = Missing Value Source: NWS Daily Summary

Daily Weather History Graph

Daily Weather History Graph

Search for Another Location

Airport:

Trip Planner

Search our weather history database for the weather conditions in past years. The results will help you decide how hot, cold, wet, or windy it might be!

Date:

Astronomy

Apr. 12, 2013 Rise Set
Actual Time 6:43 AM MDT 7:59 PM MDT
Civil Twilight 6:14 AM MDT 8:28 PM MDT
Nautical Twilight 5:39 AM MDT 9:03 PM MDT
Astronomical Twilight 5:02 AM MDT 9:40 PM MDT
Moon 7:52 AM MDT (4/12) 10:36 PM MDT (4/12)
Length of Visible Light 14h 14m
Length of Day
13h 15m
Waxing Crescent, 5% of the Moon is Illuminated
Apr 12
Waxing Crescent
Apr 18
First Quarter
Apr 25
Full
May 2
Last Quarter
May 9
New

Hourly Weather History & Observations

Time (MDT) Temp. Windchill Dew Point Humidity Pressure Visibility Wind Dir Wind Speed Gust Speed Precip Events Conditions
12:53 AM 33.1 °F - 21.9 °F 64% 29.81 in 10.0 mi Calm Calm - N/A   Partly Cloudy
1:53 AM 28.0 °F 22.8 °F 21.9 °F 78% 29.84 in 10.0 mi East 4.6 mph - N/A   Clear
2:53 AM 28.0 °F 20.8 °F 21.9 °F 78% 29.83 in 10.0 mi NNW 6.9 mph - N/A   Partly Cloudy
3:53 AM 25.0 °F 16.3 °F 19.9 °F 81% 29.83 in 10.0 mi NNW 8.1 mph - N/A   Partly Cloudy
4:53 AM 27.0 °F 17.3 °F 21.0 °F 78% 29.83 in 10.0 mi NNW 10.4 mph - N/A   Clear
5:53 AM 26.1 °F 15.6 °F 19.9 °F 78% 29.87 in 10.0 mi North 11.5 mph - N/A   Clear
6:53 AM 26.1 °F 19.4 °F 21.0 °F 81% 29.88 in 10.0 mi NNW 5.8 mph - N/A   Clear
7:53 AM 32.0 °F 24.2 °F 21.9 °F 66% 29.88 in 10.0 mi NNW 9.2 mph - N/A   Clear
8:53 AM 37.0 °F 29.8 °F 21.0 °F 52% 29.91 in 10.0 mi NNW 10.4 mph - N/A   Clear
9:53 AM 39.9 °F 32.9 °F 19.9 °F 45% 29.92 in 10.0 mi NNW 11.5 mph - N/A   Clear
10:53 AM 42.1 °F 36.1 °F 18.0 °F 38% 29.91 in 10.0 mi NW 10.4 mph 20.7 mph N/A   Clear
11:53 AM 45.0 °F 38.9 °F 14.0 °F 29% 29.91 in 10.0 mi NNW 12.7 mph 20.7 mph N/A   Clear
12:53 PM 46.9 °F - 19.0 °F 33% 29.88 in 10.0 mi West 8.1 mph - N/A   Scattered Clouds
1:53 PM 48.0 °F - 15.1 °F 27% 29.88 in 10.0 mi West 9.2 mph 18.4 mph N/A   Clear
2:53 PM 48.9 °F - 9.0 °F 20% 29.86 in 10.0 mi WNW 9.2 mph 18.4 mph N/A   Clear
3:34 PM 48.2 °F - 12.2 °F 24% 29.94 in 10.0 mi West 11.5 mph 20.7 mph N/A   Clear
3:53 PM 48.9 °F - 12.0 °F 23% 29.87 in 10.0 mi WSW 13.8 mph 23.0 mph N/A   Clear
4:53 PM 50.0 °F - 3.9 °F 15% 29.83 in 10.0 mi NW 11.5 mph - N/A   Clear
5:53 PM 48.9 °F - 12.9 °F 24% 29.83 in 10.0 mi WSW 9.2 mph 17.3 mph N/A   Clear
6:53 PM 46.0 °F 39.6 °F 15.1 °F 29% 29.84 in 10.0 mi WNW 15.0 mph 18.4 mph N/A   Clear
7:53 PM 39.9 °F 34.5 °F 21.0 °F 47% 29.83 in 10.0 mi WNW 8.1 mph - N/A   Clear
8:53 PM 34.0 °F 27.2 °F 23.0 °F 64% 29.84 in 10.0 mi WNW 8.1 mph - N/A   Clear
9:53 PM 30.9 °F 26.2 °F 21.9 °F 69% 29.84 in 10.0 mi WNW 4.6 mph - N/A   Clear
10:53 PM 32.0 °F 28.7 °F 21.9 °F 66% 29.83 in 10.0 mi NW 3.5 mph - N/A   Clear
11:53 PM 34.0 °F 29.8 °F 21.9 °F 61% 29.77 in 10.0 mi SSW 4.6 mph - N/A   Clear